Date String (YYYY-MM-DD hh:mm:ss) UTC,Instrument flags,Ambient pressure (hPa),Sample flow (lpm),Bypass flow (lpm),Sample temperature (°C),Ambient temperature (°C),ASC tube jacket temperature (°C),LED temperature (°C),Box temperature (°C),Sample RH (%),Span deviation,Mass concentration (μg/m³),Mass concentration (μg/m³),Mass concentration (μg/m³)
DateTimeUTC,F1_M11,P_M11,Q1_M11,Q2_M11,T1_M11,T2_M11,T3_M11,T4_M11,T5_M11,U1_M11,ZSPAN_M11,X0_M11,X2_M11,X1_M11
2023-05-29 08:00:00,,0829.8,5.00,0.00,29.9,28.2,00.0,38.2,31.4,18.0,0000.0,0007.86,0003.94,0003.24
2023-05-29 08:01:00,,0829.8,5.00,0.00,29.9,28.2,00.0,38.3,31.4,18.0,0000.0,0008.67,0003.97,0003.23
2023-05-29 08:02:00,,0829.8,4.99,0.00,29.9,28.2,00.0,38.3,31.4,18.0,0000.0,0008.73,0003.98,0003.23
2023-05-29 08:03:00,,0829.8,5.00,0.00,29.9,28.2,00.0,38.3,31.4,17.9,0000.0,0009.14,0003.97,0003.23
2023-05-29 08:04:00,,0829.8,5.01,0.00,29.9,28.2,00.0,38.3,31.4,18.0,0000.0,0009.19,0003.97,0003.24
2023-05-29 08:05:00,,0829.8,5.00,0.00,29.9,28.2,00.0,38.3,31.4,18.0,0000.0,0009.13,0003.93,0003.23
2023-05-29 08:06:00,,0829.8,5.00,0.00,29.9,28.2,00.0,38.3,31.4,18.0,0000.0,0009.10,0003.94,0003.23
2023-05-29 08:07:00,,0829.8,5.00,0.00,29.9,28.2,00.0,38.3,31.4,18.1,0000.0,0009.10,0003.96,0003.23
2023-05-29 08:08:00,,0829.8,5.00,0.00,29.9,28.2,00.0,38.2,31.4,18.3,0000.0,0009.34,0003.94,0003.23
2023-05-29 08:09:00,,0829.8,5.00,0.00,29.8,28.1,00.0,38.2,31.4,18.4,0000.0,0009.78,0003.92,0003.23
2023-05-29 08:10:00,,0829.8,5.00,0.00,29.8,28.1,00.0,38.2,31.3,18.5,0000.0,0009.73,0003.92,0003.21
2023-05-29 08:11:00,,0829.8,4.99,0.00,29.8,28.0,00.0,38.2,31.3,18.7,0000.0,0009.65,0003.91,0003.21
2023-05-29 08:12:00,,0829.8,5.00,0.00,29.8,27.9,00.0,38.2,31.2,18.7,0000.0,0009.24,0003.94,0003.21
2023-05-29 08:13:00,,0829.8,5.00,0.00,29.7,27.9,00.0,38.2,31.2,18.9,0000.0,0008.98,0003.92,0003.21
2023-05-29 08:14:00,,0829.8,5.00,0.00,29.7,27.8,00.0,38.2,31.2,19.5,0000.0,0008.56,0003.93,0003.22
2023-05-29 08:15:00,,0829.8,5.00,0.00,29.7,27.8,00.0,38.2,31.2,20.0,0000.0,0008.50,0003.97,0003.22
2023-05-29 08:16:00,,0829.8,5.00,0.00,29.7,27.8,00.0,38.2,31.2,20.1,0000.0,0008.65,0004.03,0003.24
2023-05-29 08:17:00,,0829.8,5.00,0.00,29.7,27.8,00.0,38.1,31.2,20.3,0000.0,0008.79,0004.06,0003.25
2023-05-29 08:18:00,,0829.8,4.99,0.00,29.7,27.7,00.0,38.1,31.1,20.4,0000.0,0008.80,0004.07,0003.26
2023-05-29 08:19:00,,0829.8,4.99,0.00,29.6,27.7,00.0,38.1,31.1,20.4,0000.0,0008.54,0004.10,0003.27
2023-05-29 08:20:00,,0829.8,5.00,0.00,29.6,27.7,00.0,38.1,31.1,20.4,0000.0,0008.03,0004.13,0003.27
2023-05-29 08:21:00,,0829.8,5.00,0.00,29.6,27.7,00.0,38.1,31.1,20.5,0000.0,0008.18,0004.11,0003.29
2023-05-29 08:22:00,,0829.8,5.01,0.00,29.6,27.7,00.0,38.1,31.1,20.7,0000.0,0008.29,0004.12,0003.30
2023-05-29 08:23:00,,0829.8,5.01,0.00,29.6,27.8,00.0,38.1,31.1,20.8,0000.0,0008.28,0004.12,0003.31
2023-05-29 08:24:00,,0829.8,5.01,0.00,29.6,27.8,00.0,38.1,31.1,20.7,0000.0,0008.19,0004.15,0003.32
2023-05-29 08:25:00,,0829.8,5.00,0.00,29.6,27.9,00.0,38.1,31.1,20.8,0000.0,0008.26,0004.18,0003.33
2023-05-29 08:26:00,,0829.8,5.00,0.00,29.6,27.9,00.0,38.0,31.1,20.9,0000.0,0008.17,0004.15,0003.31
2023-05-29 08:27:00,,0829.8,4.99,0.00,29.6,27.9,00.0,38.0,31.1,21.0,0000.0,0008.08,0004.11,0003.31
2023-05-29 08:28:00,,0829.7,5.01,0.00,29.6,27.8,00.0,38.0,31.1,21.2,0000.0,0007.99,0004.09,0003.31
2023-05-29 08:29:00,,0829.8,5.01,0.00,29.6,27.8,00.0,38.0,31.1,21.3,0000.0,0008.13,0004.13,0003.32
2023-05-29 08:30:00,,0829.7,5.01,0.00,29.5,27.7,00.0,38.0,31.0,21.5,0000.0,0008.21,0004.16,0003.32
2023-05-29 08:31:00,,0829.7,5.00,0.00,29.5,27.7,00.0,38.0,31.0,21.7,0000.0,0008.28,0004.19,0003.33
2023-05-29 08:32:00,,0829.8,4.99,0.00,29.5,27.7,00.0,38.0,31.0,21.8,0000.0,0008.23,0004.25,0003.34
2023-05-29 08:33:00,,0829.7,4.99,0.00,29.5,27.6,00.0,38.0,31.0,21.9,0000.0,0008.27,0004.28,0003.35
2023-05-29 08:34:00,,0829.7,5.01,0.00,29.5,27.6,00.0,38.0,31.0,22.0,0000.0,0008.28,0004.30,0003.36
2023-05-29 08:35:00,,0829.7,5.02,0.00,29.5,27.5,00.0,37.9,30.9,21.9,0000.0,0008.31,0004.31,0003.37
2023-05-29 08:36:00,,0829.7,4.99,0.00,29.4,27.5,00.0,37.9,30.9,21.9,0000.0,0008.36,0004.30,0003.37
2023-05-29 08:37:00,,0829.7,4.99,0.00,29.4,27.5,00.0,37.9,30.9,21.5,0000.0,0008.76,0004.31,0003.38
2023-05-29 08:38:00,,0829.7,5.00,0.00,29.4,27.5,00.0,37.9,30.9,21.4,0000.0,0008.94,0004.30,0003.38
2023-05-29 08:39:00,,0829.7,5.01,0.00,29.4,27.5,00.0,37.9,30.8,21.5,0000.0,0009.07,0004.35,0003.38
2023-05-29 08:40:00,,0829.6,5.01,0.00,29.3,27.4,00.0,37.9,30.8,21.7,0000.0,0009.43,0004.34,0003.39
2023-05-29 08:41:00,,0829.7,5.01,0.00,29.3,27.4,00.0,37.8,30.8,21.8,0000.0,0009.55,0004.30,0003.38
2023-05-29 08:42:00,,0829.7,5.00,0.00,29.3,27.4,00.0,37.8,30.8,22.2,0000.0,0009.40,0004.25,0003.38
2023-05-29 08:43:00,,0829.7,4.99,0.00,29.3,27.3,00.0,37.8,30.8,22.7,0000.0,0009.38,0004.18,0003.38
2023-05-29 08:44:00,,0829.6,4.99,0.00,29.3,27.3,00.0,37.8,30.7,22.9,0000.0,0009.69,0004.14,0003.39
2023-05-29 08:45:00,,0829.7,5.00,0.00,29.2,27.3,00.0,37.8,30.7,23.2,0000.0,0009.54,0004.11,0003.40
2023-05-29 08:46:00,,0829.7,5.01,0.00,29.2,27.3,00.0,37.8,30.7,23.5,0000.0,0009.56,0004.13,0003.41
2023-05-29 08:47:00,,0829.7,5.01,0.00,29.2,27.2,00.0,37.7,30.7,23.5,0000.0,0009.52,0004.15,0003.44
2023-05-29 08:48:00,,0829.7,5.00,0.00,29.2,27.2,00.0,37.7,30.7,23.5,0000.0,0009.22,0004.16,0003.47
2023-05-29 08:49:00,,0829.7,5.00,0.00,29.1,27.2,00.0,37.7,30.6,23.5,0000.0,0009.26,0004.26,0003.51
2023-05-29 08:50:00,,0829.7,4.99,0.00,29.1,27.2,00.0,37.7,30.6,23.4,0000.0,0009.32,0004.29,0003.54
2023-05-29 08:51:00,,0829.7,4.98,0.00,29.1,27.2,00.0,37.7,30.6,23.4,0000.0,0009.12,0004.37,0003.57
2023-05-29 08:52:00,,0829.7,5.00,0.00,29.1,27.2,00.0,37.6,30.6,23.4,0000.0,0009.21,0004.44,0003.62
2023-05-29 08:53:00,,0829.7,5.01,0.00,29.1,27.2,00.0,37.6,30.6,23.2,0000.0,0009.22,0004.50,0003.66
2023-05-29 08:54:00,,0829.7,5.01,0.00,29.1,27.2,00.0,37.6,30.6,23.3,0000.0,0009.25,0004.58,0003.70
2023-05-29 08:55:00,,0829.7,5.00,0.00,29.1,27.2,00.0,37.6,30.6,23.3,0000.0,0008.92,0004.66,0003.73
2023-05-29 08:56:00,,0829.7,4.98,0.00,29.0,27.1,00.0,37.6,30.6,23.2,0000.0,0009.18,0004.76,0003.77
2023-05-29 08:57:00,,0829.7,5.00,0.00,29.0,27.1,00.0,37.6,30.5,22.8,0000.0,0009.30,0004.79,0003.79
2023-05-29 08:58:00,,0829.7,5.00,0.00,29.0,27.2,00.0,37.5,30.6,22.5,0000.0,0009.36,0004.81,0003.79
2023-05-29 08:59:00,,0829.7,5.00,0.00,29.0,27.2,00.0,37.5,30.5,22.5,0000.0,0009.40,0004.82,0003.78
